Theta_e
290 291 291 290 290 291 290 290 286 288 288 292 296 296 297 300 303 305 306 310 327 328 334 335 334 336 336 338 339 339 337 338 340 341 341 340 339 339 339 338 337 335 336 334
288 291 290 288 291 291 291 291 291 291 290 297 299 300 300 301 303 304 306 308 318 329 331 334 334 332 334 335 336 339 336 337 338 337 336 337 338 338 339 335 335 336 333 334
283 290 289 286 290 291 293 294 293 289 294 300 300 299 301 303 304 305 306 308 314 326 330 334 330 333 332 336 337 336 334 334 334 334 333 334 335 334 332 333 336 334 334 334
284 288 279 290 296 295 294 295 296 296 296 299 300 303 304 306 306 306 308 309 319 326 330 332 334 331 332 334 333 331 330 330 331 331 332 332 331 332 333 336 337 335 334 332
283 283 287 289 293 293 291 291 298 297 299 300 303 305 303 309 310 309 311 320 325 328 333 335 336 331 331 330 330 329 329 330 331 330 329 330 330 333 336 334 334 334 333 330
285 281 279 290 293 296 294 286 296 296 297 299 303 297 302 313 314 311 321 323 324 325 331 334 336 331 330 329 328 328 328 329 330 329 331 329 332 334 335 334 334 335 332 329
285 284 288 293 296 296 283 288 297 297 297 298 297 302 306 312 313 317 321 323 326 325 328 332 335 330 329 329 327 331 331 330 330 329 330 334 335 336 334 333 333 332 329 327
287 284 282 297 296 287 293 296 296 297 297 297 301 303 306 310 313 316 318 321 323 325 329 332 332 331 328 329 331 332 331 331 331 331 330 332 335 335 335 334 331 331 327 326
288 290 298 301 298 299 300 296 297 297 299 299 300 302 306 309 312 314 320 321 324 323 329 330 332 330 328 330 332 331 332 328 331 330 328 332 330 331 332 332 331 330 327 325
292 295 296 296 300 300 300 299 299 300 299 300 303 305 306 310 312 317 321 323 323 327 329 329 330 331 333 332 332 332 328 330 332 330 329 332 333 335 333 333 331 330 329 326
295 297 298 297 298 298 298 299 298 299 300 305 308 310 309 310 313 318 321 323 327 328 327 328 329 329 332 333 333 330 329 330 329 330 332 328 319 318 330 318 323 330 330 327
290 296 292 294 297 298 296 296 298 299 302 305 309 311 312 314 320 322 322 324 329 327 327 327 326 329 332 330 334 330 330 328 328 329 332 330 327 320 296 296 297 296 307 323
297 299 298 297 297 298 297 298 300 301 303 306 312 314 317 319 322 320 323 327 328 329 328 325 326 328 329 331 333 332 330 330 331 328 330 329 329 327 321 310 297 295 296 304
300 298 293 295 294 298 298 298 302 302 303 306 308 318 319 319 319 321 323 326 328 328 325 326 327 328 332 331 333 329 332 313 331 328 330 328 325 328 326 325 323 321 300 300
299 299 297 297 298 298 298 299 299 298 299 302 308 312 313 312 312 312 314 317 325 324 325 325 328 328 330 331 333 333 326 330 325 329 327 326 327 328 328 326 325 319 313 303
298 298 297 296 296 297 296 297 296 297 299 300 303 307 309 310 310 309 310 311 318 317 321 327 328 329 328 332 333 330 331 310 318 328 327 329 327 328 329 327 325 324 322 314
296 295 296 295 295 296 295 297 297 297 298 298 299 304 304 304 306 306 308 310 308 309 313 316 319 327 330 327 332 330 328 324 315 324 328 328 328 327 329 328 325 327 325 317
300 299 298 297 297 296 295 297 297 298 298 298 299 301 299 298 300 302 303 308 309 306 304 306 306 316 325 322 325 331 327 326 328 325 326 328 330 331 331 329 328 328 326 315
301 299 299 298 299 296 296 297 296 297 298 298 298 296 298 297 296 297 298 299 300 298 298 302 297 312 321 316 312 330 328 326 328 324 328 318 328 331 328 328 328 326 325 323
300 300 300 298 299 297 295 297 297 296 297 297 297 296 294 294 296 295 296 294 295 296 299 298 302 307 314 319 310 329 326 327 326 323 325 325 327 322 329 321 328 326 327 326
301 300 299 298 297 298 297 298 297 295 295 295 295 296 293 292 292 291 292 291 292 294 295 295 296 297 306 311 318 323 320 320 324 325 324 326 326 325 326 325 324 327 326 323
302 300 299 299 297 296 297 297 297 296 295 293 292 293 292 292 293 291 291 290 293 290 294 294 294 289 295 294 309 312 313 312 311 313 317 321 318 316 314 315 314 312 313 314
303 302 301 300 299 298 297 297 296 295 294 293 293 291 290 290 290 289 288 291 292 290 293 292 288 288 289 301 302 302 303 304 303 303 303 304 305 305 305 304 302 302 301 300
304 303 302 303 303 301 297 297 297 296 295 294 293 293 293 290 290 292 293 291 289 290 291 289 289 288 291 296 296 297 298 298 299 300 298 296 299 299 298 299 298 298 297 296
305 305 303 303 301 302 301 301 300 299 296 295 294 294 294 294 292 293 293 293 290 293 294 289 289 290 295 294 293 293 293 294 295 296 296 296 295 294 294 296 297 295 294 293
307 304 304 306 303 303 301 301 299 299 300 297 295 295 295 295 294 294 294 293 295 293 294 295 295 295 294 293 293 293 293 293 293 293 293 293 293 294 294 294 293 292 291 291
307 301 303 303 303 303 302 301 300 299 299 300 298 298 297 296 295 295 292 295 295 296 296 296 295 294 295 294 293 293 293 292 291 293 293 292 292 292 291 291 291 292 291 290
Wind_Speed
19 21 22 23 24 25 22 23 20 18 17 10 10 9 14 22 30 23 12 16 7 6 5 4 14 14 13 15 16 14 14 13 12 11 10 10 8 7 7 7 5 7 5 6
21 21 22 24 23 24 25 22 23 22 17 11 8 19 20 23 23 13 11 14 5 2 7 5 11 12 12 13 14 15 14 14 12 11 11 9 8 7 7 8 7 5 6 6
21 19 16 15 9 19 20 19 10 13 12 16 17 15 14 16 15 13 10 11 7 0 9 4 7 11 11 15 15 14 13 13 12 12 11 8 8 7 8 7 6 6 7 9
10 12 11 8 11 17 19 19 17 15 15 21 17 16 14 18 18 12 13 9 12 3 9 8 4 5 12 15 14 13 13 13 13 12 11 9 6 9 6 7 6 6 9 9
5 6 14 13 10 12 16 23 18 15 14 14 17 19 15 18 16 10 11 6 7 11 7 3 3 7 13 14 13 13 13 13 14 12 11 6 10 8 8 8 5 5 9 9
5 5 5 6 10 10 15 16 15 15 15 17 15 11 5 19 21 8 4 4 5 10 10 7 4 7 14 13 13 13 12 12 11 14 12 9 9 8 7 6 6 5 9 9
10 6 5 2 1 2 3 9 20 18 19 21 16 13 18 22 17 17 2 3 4 11 12 10 7 10 13 12 12 13 13 11 13 11 12 11 7 5 8 6 7 8 10 7
2 5 4 8 5 3 5 16 19 17 17 19 19 21 19 21 17 18 6 5 4 9 18 11 7 13 12 10 14 13 11 15 13 10 9 8 8 6 5 7 9 9 9 5
6 5 11 12 8 9 11 14 13 16 17 19 21 20 22 21 17 19 6 4 3 10 14 11 14 12 12 14 13 10 12 14 12 8 7 10 8 7 6 7 7 8 7 8
4 5 5 11 14 11 11 13 14 14 18 22 22 20 21 18 16 18 6 5 11 9 12 14 15 12 13 14 12 11 14 12 9 8 9 7 6 5 5 6 6 5 7 8
11 7 11 3 9 13 14 13 15 18 20 17 17 19 18 17 14 13 5 9 10 17 14 17 13 13 16 15 13 15 11 10 9 7 8 9 8 5 3 4 2 7 5 7
3 6 1 8 14 15 14 14 16 19 17 17 16 14 15 17 9 7 9 9 12 10 10 17 14 14 16 15 14 13 11 8 8 9 8 8 8 8 15 9 10 11 8 7
3 5 5 13 15 14 14 16 17 14 14 17 16 14 16 10 7 7 9 6 6 8 16 15 16 16 16 16 16 13 10 9 8 9 9 8 9 8 8 6 16 17 11 13
9 9 14 11 12 15 12 16 15 10 11 11 13 13 5 3 9 10 12 5 14 9 15 14 15 15 20 18 16 12 8 11 8 7 12 9 6 8 9 8 8 7 13 8
12 11 9 13 13 10 11 13 12 11 13 13 14 11 13 12 11 14 19 16 12 14 15 15 14 13 16 17 16 14 7 8 6 4 9 9 6 6 7 8 9 9 7 7
13 9 12 14 15 10 12 13 13 11 12 12 13 14 11 11 14 12 13 14 16 15 15 8 12 7 7 15 14 12 11 16 8 7 11 9 6 7 6 8 9 9 9 7
10 11 12 15 13 11 12 11 11 11 12 12 13 11 11 9 16 16 16 11 14 14 14 15 15 15 14 14 9 10 6 8 11 5 11 10 8 5 8 7 8 9 10 10
8 8 9 10 11 8 11 12 13 13 12 12 12 13 12 13 14 11 11 9 8 12 16 15 15 11 12 14 10 5 0 7 7 6 10 11 11 9 7 8 8 11 11 10
10 8 13 13 11 10 9 11 12 13 12 12 11 13 11 16 9 9 11 10 12 12 15 15 18 11 12 13 9 5 8 5 3 5 8 13 10 11 10 8 9 10 11 10
12 10 14 14 12 11 10 10 11 13 14 13 10 11 13 13 11 12 11 16 13 9 11 14 13 12 12 12 13 9 7 6 7 2 5 8 7 4 14 13 11 12 11 11
11 11 14 15 13 13 12 11 11 12 12 13 11 9 10 12 17 12 12 11 14 14 11 11 13 9 9 8 10 10 12 11 12 10 9 11 14 15 13 12 11 8 12 14
10 9 12 13 13 11 12 10 10 9 9 9 11 11 11 13 12 13 15 11 8 17 9 10 10 13 9 13 10 11 12 12 11 12 11 13 14 14 12 13 14 13 13 13
9 8 11 10 12 12 11 11 10 10 11 11 11 11 10 10 9 9 10 12 9 12 9 9 10 11 12 9 9 14 13 12 11 11 11 12 13 13 12 13 12 13 13 12
6 7 8 8 9 10 11 11 10 12 12 11 12 11 9 7 9 8 7 7 12 13 10 8 10 11 13 10 9 15 12 11 10 10 12 13 13 12 12 12 12 13 13 13
6 4 3 7 7 8 12 11 10 12 11 10 11 10 11 9 7 7 8 7 9 9 10 11 11 12 11 11 13 14 12 12 11 11 12 13 13 13 12 12 12 13 13 13
4 7 5 7 7 6 9 8 9 8 8 9 8 6 7 6 6 8 6 8 10 12 12 11 11 13 13 13 14 14 11 14 12 14 14 15 14 13 13 13 12 12 12 13
6 7 6 5 8 7 7 8 8 9 9 8 11 9 7 7 6 7 7 7 8 9 10 12 12 13 12 13 14 13 12 13 13 14 12 14 13 12 13 12 12 11 11 10
Wind_Direction
278 283 277 274 263 275 240 245 265 286 289 290 198 191 255 247 262 290 314 315 94 203 242 95 106 105 116 121 132 139 140 138 133 135 132 129 134 139 146 148 128 108 104 87
284 280 278 275 274 272 271 270 268 271 277 304 245 176 223 255 265 283 300 312 14 185 188 148 115 122 137 138 143 137 133 132 139 139 137 141 141 146 115 112 110 119 104 107
276 293 289 290 307 308 329 324 352 308 324 315 334 341 317 310 323 312 300 295 330 35 212 125 125 149 158 134 128 129 133 139 146 148 146 126 136 109 120 111 124 113 109 102
285 294 269 311 348 331 318 310 304 332 325 312 315 300 292 291 312 277 297 292 342 168 229 149 101 143 131 124 131 139 147 154 156 130 125 132 134 124 117 109 112 118 112 107
281 286 288 295 2 344 339 315 352 353 333 318 308 307 281 282 276 281 298 347 14 320 209 135 185 141 132 136 150 153 157 160 127 133 143 152 130 129 120 121 143 127 119 112
299 275 281 53 38 1 342 280 24 349 325 316 310 282 308 340 332 266 64 10 344 326 216 181 186 165 139 154 155 163 148 123 127 138 127 121 134 142 123 140 149 121 102 103
259 261 259 140 298 177 232 318 327 325 313 308 303 309 318 304 309 311 31 19 331 302 199 186 177 153 153 160 166 121 126 121 123 136 137 132 141 137 133 162 132 119 107 116
282 274 299 258 37 215 293 295 297 303 297 292 292 290 289 288 297 300 320 340 299 287 192 178 185 151 156 162 122 125 138 118 133 140 144 138 137 144 149 131 129 120 118 125
205 251 322 341 306 285 276 275 289 295 294 295 288 282 284 286 284 284 316 290 255 284 189 175 162 160 152 123 126 143 122 135 142 143 142 150 145 156 145 150 146 149 150 130
270 248 288 318 303 318 294 292 305 295 291 283 269 261 262 273 275 285 296 290 290 222 170 167 141 153 128 129 139 123 117 121 105 102 120 137 132 147 172 158 157 159 147 134
280 305 313 349 323 317 305 316 304 297 288 284 284 251 250 264 276 283 275 283 252 199 155 134 152 149 131 134 128 115 119 112 118 115 116 89 66 3 95 40 254 159 149 135
293 33 351 293 324 324 329 314 302 301 306 303 292 285 251 254 264 273 260 255 231 164 157 141 156 147 141 143 124 127 130 139 164 148 147 132 119 90 42 39 52 71 107 138
36 9 12 327 319 325 309 306 308 311 315 308 303 292 271 299 313 345 271 200 255 222 140 153 159 154 143 144 131 145 148 162 179 160 146 141 136 130 119 60 65 49 51 107
64 11 349 332 316 311 332 317 315 323 327 318 298 263 227 114 29 20 47 316 269 207 149 165 163 151 146 136 141 146 162 179 190 193 140 150 144 141 138 146 129 94 38 66
47 50 358 321 339 341 334 331 343 352 342 358 352 33 46 46 43 23 32 352 267 160 158 166 152 142 138 139 141 145 180 181 208 132 134 132 116 106 132 131 124 115 110 67
45 8 1 353 344 2 349 347 358 6 1 5 11 25 33 40 52 36 49 10 37 48 27 74 76 97 134 135 134 157 194 95 135 147 140 131 137 135 136 135 132 140 136 133
21 359 360 358 352 6 -0 358 357 15 16 15 15 26 41 40 57 41 35 23 41 44 36 41 33 24 27 10 157 162 178 122 126 267 144 143 150 147 143 160 149 145 138 150
84 336 42 17 3 39 4 7 13 16 22 25 25 40 45 49 50 48 36 22 31 49 31 22 7 3 26 26 1 6 76 160 144 246 142 156 156 155 149 155 140 134 129 156
61 9 45 42 26 54 17 20 19 13 22 23 29 30 33 56 50 59 57 52 38 29 9 7 343 10 22 3 341 9 353 204 186 354 144 147 158 158 154 156 133 125 139 156
66 25 61 57 52 58 32 18 31 29 21 13 37 41 37 39 42 46 45 53 30 9 358 9 6 15 8 357 10 40 12 329 140 20 241 157 127 148 159 153 150 138 147 152
54 52 50 72 49 60 44 26 38 37 24 17 13 48 66 60 48 27 34 44 16 7 2 19 26 6 359 341 45 43 29 23 44 67 62 69 69 71 74 81 69 84 79 76
59 51 67 70 76 65 66 55 48 58 52 42 39 37 44 44 54 50 40 30 20 4 7 30 24 359 1 347 62 52 50 45 38 53 40 68 68 70 63 67 70 72 65 61
71 50 69 69 81 84 78 67 50 50 52 44 49 47 50 57 47 47 46 20 33 17 30 32 1 15 21 24 59 67 55 52 52 58 63 57 65 63 65 67 63 68 70 64
80 80 86 82 96 97 83 84 79 65 60 59 53 41 45 53 57 47 48 43 42 43 45 24 24 35 51 41 35 67 62 56 57 68 75 67 71 73 70 70 72 73 74 72
100 105 89 100 77 101 123 102 94 98 85 64 61 61 63 54 60 63 53 49 42 56 60 44 44 55 66 64 62 63 63 65 63 65 66 74 74 72 68 68 73 79 77 73
125 89 64 39 74 76 84 78 89 85 96 102 86 78 76 76 72 73 60 62 68 64 63 58 53 54 54 59 64 67 65 74 71 73 77 73 70 72 73 73 71 69 73 75
127 136 144 122 73 70 73 86 92 99 97 93 112 112 105 100 89 86 76 73 74 76 76 71 73 70 73 70 71 71 70 74 67 71 72 76 72 67 69 69 67 59 60 69